Voltar ao catálogo

COSMOS 1261 DEB

AtivoHEO
NORAD 12894·DEBRIS·🇷🇺 Russia

Lançado Mar 31, 1981 de Plesetsk Cosmodrome

Loading…

Próximas Passagens (próximas 24 horas)

TLE

AtualizadoSource: Space-Track

Época: Sep 8, 2026, 14:24 UTC

1 12894U 81031G   26251.60067885  .00000337  00000-0  00000-0 0  9996
2 12894  69.8461  89.3144 5601632 347.0386 217.0350  2.00491147303432

Acompanhe COSMOS 1261 DEB em tempo real com AllMySat

Download on the App Store